Effective Sunday, March 17, 2024, the National Weather Service National Data Buoy Center will discontinue its Dial-A-Buoy Interactive Voice Response system. For more information, see Service Change Notice 24-06 (PDF).

Station FPST2 - 8772471 - Freeport SPIP, TX Image indicating link to RSS feed of recent meteorological observations for station FPST2


Conditions at FPST2 as of
(8:30 am CST)
1430 GMT on 03/04/2024:
     

Click on the graph icon in the table below to see a time series plot of the last five days of that observation.

5-day plot - Wind Direction Wind Direction (WDIR): SE ( 140 deg true )
5-day plot - Wind Speed Wind Speed (WSPD): 12.0 kts
5-day plot - Wind Gust Wind Gust (GST): 14.0 kts
5-day plot - Atmospheric Pressure Atmospheric Pressure (PRES):29.87 in
5-day plot - Air Temperature Air Temperature (ATMP): 65.5 °F
5-day plot - Water Temperature Water Temperature (WTMP): 63.0 °F
5-day plot - Wind Speed at 10 Meters Wind Speed at 10 meters (WSPD10M): 11.7 kts
5-day plot - Wind Speed at 20 Meters Wind Speed at 20 meters (WSPD20M): 13.6 kts
5-day plot -  Wind Speed, Wind Gust and Atmospheric Pressure Combined plot of Wind Speed, Gust, and Air Pressure
NOS Water Level Observation Network Water Level
Previous observations
TIME
(CST)
5-day plot - Wind Direction
WDIR
 
5-day plot - Wind Speed
WSPD
kts
5-day plot - Wind Gust
GST
kts
5-day plot - Wave Height
WVHT
ft
5-day plot - Dominant Wave Period
DPD
sec
5-day plot - Average Wave Period
APD
sec
5-day plot - Mean Wave Direction
MWD
 
5-day plot - Atmospheric Pressure
PRES
in
5-day plot - Pressure Tendency
PTDY
in
5-day plot - Air Temperature
ATMP
°F
5-day plot - Water Temperature
WTMP
°F
5-day plot - Dew Point
DEWP
°F
5-day plot - Salinity
SAL
psu
5-day plot - Visibility
VIS
nmi
5-day plot - Tide (above MLLW)
TIDE
ft
2024-03-04 08:24 am SE 11.1 12.0----29.86- 65.3 63.0----
2024-03-04 08:18 am SE 9.9 12.0----29.86- 65.3 63.0----
2024-03-04 08:12 am SE 11.1 13.0----29.86- 65.5 63.0----
2024-03-04 08:06 am SE 12.0 13.0----29.86- 65.7 62.8----
2024-03-04 08:00 am SE 12.0 14.0----29.85+0.02 65.7 62.8----
2024-03-04 07:54 am SE 12.0 13.0----29.85- 65.7 62.8----
2024-03-04 07:48 am SE 12.0 13.0----29.85- 65.3 62.8----
2024-03-04 07:42 am SE 11.1 12.0----29.85- 65.3 62.8----
2024-03-04 07:36 am SE 11.1 12.0----29.85- 65.1 62.6----
2024-03-04 07:30 am SE 9.9 11.1----29.85- 64.9 62.6----
2024-03-04 07:24 am SE 9.9 11.1----29.85- 64.8 62.6----
2024-03-04 07:18 am SE 9.9 9.9----29.85- 64.8 62.6----
2024-03-04 07:12 am SE 8.9 9.9----29.85- 64.8 62.6----
2024-03-04 07:06 am SE 9.9 11.1----29.85- 64.8 62.4----
2024-03-04 07:00 am SE 8.9 9.9----29.84+0.01 64.6 62.6----
2024-03-04 06:54 am SE 9.9 9.9----29.84- 64.6 62.6----
2024-03-04 06:48 am SE 8.9 9.9----29.84- 64.6 62.6----
2024-03-04 06:42 am SE 8.9 9.9----29.85- 64.8 62.6----
2024-03-04 06:36 am SE 8.9 9.9----29.84- 64.9 62.8----
2024-03-04 06:30 am SE 8.9 9.9----29.84- 65.1 62.6----
2024-03-04 06:24 am SE 8.9 11.1----29.84- 65.3 62.6----
2024-03-04 06:18 am SE 11.1 11.1----29.84- 65.7 62.6----
2024-03-04 06:12 am SE 11.1 11.1----29.84- 65.5 62.6----
2024-03-04 06:06 am SE 8.9 9.9----29.84- 64.9 62.6----
2024-03-04 06:00 am SE 8.0 9.9----29.84+0.00 64.9 62.6----
2024-03-04 05:54 am SE 8.0 8.9----29.83- 65.7 62.4----
2024-03-04 05:48 amESE 8.0 8.9----29.83- 65.5 62.4----
2024-03-04 05:42 amESE 8.0 8.9----29.83- 65.1 62.6----
2024-03-04 05:36 amESE 8.9 8.9----29.83- 65.1 62.6----
2024-03-04 05:30 amESE 8.0 8.9----29.83- 64.8 62.4----
2024-03-04 05:24 amESE 8.9 9.9----29.83- 64.8 62.4----
2024-03-04 05:18 amESE 8.9 9.9----29.83- 65.1 62.4----
2024-03-04 05:12 amESE 8.0 8.9----29.83- 64.9 62.4----
2024-03-04 05:06 amESE 7.0 8.0----29.83- 65.1 62.4----
2024-03-04 05:00 amESE 8.0 8.0----29.83-0.02 65.5 62.4----
2024-03-04 04:54 amESE 7.0 8.0----29.83- 65.3 62.4----
2024-03-04 04:48 amESE 7.0 8.9----29.83- 65.5 62.4----
2024-03-04 04:42 am SE 8.9 8.9----29.83- 66.0 62.4----
2024-03-04 04:36 am SE 8.9 9.9----29.83- 66.0 62.4----
2024-03-04 04:30 am SE 9.9 11.1----29.83- 65.8 62.4----
2024-03-04 04:24 am SE 9.9 11.1----29.83- 65.5 62.4----
2024-03-04 04:18 am SE 8.0 8.9----29.83- 65.1 62.4----
2024-03-04 04:12 amESE 7.0 8.0----29.83- 64.9 62.4----
2024-03-04 04:06 amESE 7.0 8.0----29.83- 65.3 62.6----
2024-03-04 04:00 amESE 6.0 8.0----29.83-0.02 65.3 62.6----
2024-03-04 03:54 amESE 6.0 8.0----29.83- 65.1 62.4----
2024-03-04 03:48 amESE 7.0 8.0----29.83- 65.1 62.4----
2024-03-04 03:42 amESE 8.0 8.9----29.83- 65.5 62.4----
2024-03-04 03:36 amESE 8.9 11.1----29.83- 65.7 62.4----
2024-03-04 03:30 amESE 9.9 11.1----29.83- 65.8 62.4----
2024-03-04 03:24 amESE 11.1 11.1----29.83- 65.8 62.4----
2024-03-04 03:18 amESE 9.9 9.9----29.83- 65.1 62.4----
2024-03-04 03:12 amESE 9.9 11.1----29.83- 65.3 62.4----
2024-03-04 03:06 amESE 8.9 9.9----29.83- 65.1 62.4----
2024-03-04 03:00 amESE 8.0 9.9----29.83-0.02 64.9 62.4----
2024-03-04 02:54 amESE 9.9 9.9----29.83- 65.1 62.4----
2024-03-04 02:48 amESE 9.9 9.9----29.84- 64.9 62.4----
2024-03-04 02:42 amESE 8.9 9.9----29.84- 64.8 62.4----
2024-03-04 02:36 amESE 8.0 8.9----29.84- 64.9 62.4----
2024-03-04 02:30 amESE 7.0 8.0----29.85- 64.6 62.4----
2024-03-04 02:24 amESE 8.0 8.9----29.85- 64.9 62.4----
2024-03-04 02:18 amESE 8.9 9.9----29.85- 65.1 62.4----
2024-03-04 02:12 amESE 8.9 9.9----29.85- 65.1 62.4----
2024-03-04 02:06 amESE 8.9 8.9----29.85- 65.1 62.4----
2024-03-04 02:00 am SE 8.9 9.9----29.85-0.01 64.9 62.4----
2024-03-04 01:54 am SE 9.9 11.1----29.85- 65.3 62.4----
2024-03-04 01:48 am SE 9.9 11.1----29.85- 65.1 62.4----
2024-03-04 01:42 am SE 8.9 9.9----29.85- 64.8 62.4----
2024-03-04 01:36 am SE 8.0 8.9----29.85- 64.6 62.4----
2024-03-04 01:30 am SE 8.0 9.9----29.85- 64.6 62.4----
2024-03-04 01:24 amESE 8.9 11.1----29.85- 64.8 62.4----
2024-03-04 01:18 amESE 11.1 11.1----29.85- 64.8 62.4----
2024-03-04 01:12 amESE 9.9 12.0----29.85- 64.6 62.4----
2024-03-04 01:06 amESE 11.1 12.0----29.85- 65.1 62.4----
2024-03-04 01:00 amESE 9.9 11.1----29.85-0.02 64.8 62.4----
2024-03-04 12:54 amESE 9.9 11.1----29.86- 64.8 62.2----
2024-03-04 12:48 amESE 9.9 12.0----29.86- 64.8 62.2----
2024-03-04 12:42 amESE 8.9 11.1----29.86- 64.4 62.2----
2024-03-04 12:36 amESE 8.9 9.9----29.86- 64.2 62.4----
2024-03-04 12:30 am E 8.9 8.9----29.85- 64.0 62.2----
2024-03-04 12:24 am E 8.9 9.9----29.86- 63.9 62.2----
2024-03-04 12:18 am E 8.9 9.9----29.86- 63.7 62.2----
2024-03-04 12:12 am E 8.9 8.9----29.85- 63.5 62.2----
2024-03-04 12:06 am E 8.0 8.9----29.86- 63.5 62.2----
2024-03-04 12:00 am E 8.0 8.9----29.86-0.02 63.3 62.2----
2024-03-03 11:54 pm E 8.0 8.9----29.86- 63.5 62.2----
2024-03-03 11:48 pm E 8.0 8.9----29.86- 63.5 62.2----
2024-03-03 11:42 pm E 8.0 9.9----29.86- 63.7 62.2----
2024-03-03 11:36 pm E 8.9 9.9----29.85- 63.7 62.2----
2024-03-03 11:30 pm E 9.9 9.9----29.85- 63.5 62.2----
2024-03-03 11:24 pm E 8.9 9.9----29.85- 63.5 62.2----
2024-03-03 11:18 pm E 8.9 9.9----29.86- 63.5 62.2----
2024-03-03 11:12 pm E 8.9 9.9----29.86- 63.7 62.2----
2024-03-03 11:06 pm E 8.9 8.9----29.86- 63.5 62.2----
2024-03-03 11:00 pm E 8.9 8.9----29.86-0.01 63.3 62.2----
2024-03-03 10:54 pm E 8.0 8.9----29.86- 63.3 62.4----
2024-03-03 10:48 pm E 8.0 8.9----29.87- 63.1 62.4----
2024-03-03 10:42 pm E 8.0 8.9----29.86- 63.0 62.4----
2024-03-03 10:36 pm E 8.9 8.9----29.86- 63.1 62.2----
2024-03-03 10:30 pm E 8.9 9.9----29.86- 63.1 62.4----
2024-03-03 10:24 pm E 8.9 9.9----29.87- 63.3 62.4----
2024-03-03 10:18 pm E 8.9 9.9----29.87- 63.1 62.2----
2024-03-03 10:12 pm E 8.0 8.9----29.87- 63.1 62.2----
2024-03-03 10:06 pm E 8.9 8.9----29.87- 63.1 62.2----
2024-03-03 10:00 pm E 8.0 8.9----29.87+0.01 63.1 62.2----
2024-03-03 09:54 pm E 8.0 8.9----29.88- 63.3 62.2----
2024-03-03 09:48 pm E 7.0 8.0----29.88- 63.1 62.2----
2024-03-03 09:42 pmENE 5.1 6.0----29.88- 63.0 62.2----
2024-03-03 09:36 pmENE 6.0 7.0----29.88- 63.1 62.2----
2024-03-03 09:30 pm E 7.0 8.9----29.88- 63.3 62.4----
2024-03-03 09:24 pmENE 8.0 8.9----29.88- 63.5 62.4----
2024-03-03 09:18 pm E 8.9 11.1----29.88- 63.7 62.4----
2024-03-03 09:12 pm E 9.9 11.1----29.88- 63.9 62.4----
2024-03-03 09:06 pm E 8.9 9.9----29.88- 63.7 62.4----
2024-03-03 09:00 pm E 8.9 9.9----29.88+0.01 63.9 62.4----
2024-03-03 08:54 pm E 8.9 8.9----29.88- 63.9 62.4----
2024-03-03 08:48 pm E 7.0 8.0----29.88- 63.7 62.4----
2024-03-03 08:42 pm E 7.0 8.0----29.88- 63.7 62.4----
2024-03-03 08:36 pm E 7.0 8.0----29.88- 63.7 62.4----
2024-03-03 08:30 pm E 7.0 8.0----29.88- 63.5 62.4----
2024-03-03 08:24 pm E 7.0 8.0----29.88- 63.5 62.2----
2024-03-03 08:18 pm E 8.0 8.9----29.88- 63.5 62.2----
2024-03-03 08:12 pm E 8.0 8.9----29.88- 63.3 62.2----
2024-03-03 08:06 pm E 8.0 8.9----29.88- 63.3 62.2----
2024-03-03 08:00 pm E 8.9 8.9----29.88+0.01 63.3 62.2----
2024-03-03 07:54 pm E 8.0 8.9----29.88- 63.1 62.4----
2024-03-03 07:48 pmENE 8.0 8.9----29.88- 63.1 62.4----
2024-03-03 07:42 pm E 8.0 8.9----29.87- 63.3 62.4----
2024-03-03 07:36 pm E 7.0 8.9----29.87- 63.3 62.4----
2024-03-03 07:30 pm E 8.0 8.9----29.87- 63.5 62.4----
2024-03-03 07:24 pm E 8.9 8.9----29.87- 63.7 62.4----
2024-03-03 07:18 pm E 8.9 8.9----29.86- 63.7 62.4----
2024-03-03 07:12 pm E 8.9 9.9----29.86- 63.7 62.4----
2024-03-03 07:06 pm E 9.9 11.1----29.86- 63.9 62.4----
2024-03-03 07:00 pm-------29.86+0.00 63.9 62.4----
2024-03-03 06:54 pm-------29.86- 63.7 62.4----
2024-03-03 06:48 pm E 8.0 8.0----29.87- 63.5 62.4----
2024-03-03 06:42 pm E 8.0 8.9----29.87- 63.5 62.4----
2024-03-03 06:36 pm E 8.9 9.9----29.86- 63.7 62.4----
2024-03-03 06:30 pm E 8.9 9.9----29.86-- 62.4----
2024-03-03 06:24 pm E 8.0 8.9----29.86-- 62.4----
2024-03-03 06:18 pm E 7.0 8.0----29.86- 63.7 62.4----
2024-03-03 06:12 pm E 6.0 7.0----29.86- 63.5 62.4----
2024-03-03 06:06 pm E 5.1 6.0----29.86- 63.7 62.4----
2024-03-03 06:00 pm E 5.1 7.0----29.86-0.01 63.9 62.6----
2024-03-03 05:54 pm E 6.0 7.0----29.86- 64.0 62.6----
2024-03-03 05:48 pm E 5.1 7.0----29.86- 64.2 62.6----
2024-03-03 05:42 pm E 5.1 6.0----29.86- 64.4 62.6----
2024-03-03 05:36 pm E 5.1 6.0----29.86- 64.6 62.4----
2024-03-03 05:30 pm E 5.1 6.0----29.86- 64.6 62.4----
2024-03-03 05:24 pm E 4.1 6.0----29.86- 64.6 62.4----
2024-03-03 05:18 pm E 5.1 6.0----29.86- 64.8 62.4----
2024-03-03 05:12 pm E 4.1 5.1----29.86- 64.4 62.4----
2024-03-03 05:06 pmENE 4.1 5.1----29.86- 64.2 62.4----
2024-03-03 05:00 pmENE 4.1 5.1----29.86-0.01 64.2 62.4----
2024-03-03 04:54 pmENE 4.1 5.1----29.86- 64.2 62.4----
2024-03-03 04:48 pmENE 5.1 5.1----29.86- 64.4 62.4----
2024-03-03 04:42 pmENE 4.1 4.1----29.86- 64.6 62.2----
2024-03-03 04:36 pmENE 2.9 2.9----29.86- 64.4 62.4----
2024-03-03 04:30 pm E 2.9 2.9----29.86- 64.2 62.4----
2024-03-03 04:24 pm E 2.9 4.1----29.86- 64.0 62.4----
2024-03-03 04:18 pm E 4.1 5.1----29.87- 64.0 62.4----
2024-03-03 04:12 pm E 4.1 5.1----29.86- 63.9 62.4----
2024-03-03 04:06 pm E 5.1 5.1----29.87- 64.0 62.4----
2024-03-03 04:00 pm E 4.1 5.1----29.87-0.03 64.2 62.4----
2024-03-03 03:54 pm E 5.1 5.1----29.87- 64.2 62.4----
2024-03-03 03:48 pm E 5.1 6.0----29.87- 64.0 62.4----
2024-03-03 03:42 pm E 6.0 6.0----29.87- 64.0 62.2----
2024-03-03 03:36 pm E 6.0 6.0----29.87- 64.2 62.1----
2024-03-03 03:30 pm E 6.0 7.0----29.87-- 62.1----
2024-03-03 03:24 pm E 7.0 8.0----29.87-- 62.1----
2024-03-03 03:18 pm E 7.0 8.0----29.87- 64.2 62.2----
2024-03-03 03:12 pm E 7.0 8.0----29.87- 64.2 62.2----
2024-03-03 03:06 pm E 6.0 7.0----29.87- 64.0 62.2----
2024-03-03 03:00 pm E 6.0 6.0----29.87-0.06- 62.2----
2024-03-03 02:54 pm E 6.0 7.0----29.87-- 62.2----
2024-03-03 02:48 pm E 6.0 7.0----29.87- 63.9 62.2----
2024-03-03 02:42 pm E 7.0 8.0----29.88- 64.2 62.1----
2024-03-03 02:36 pm E 7.0 8.0----29.87- 64.2 62.1----
2024-03-03 02:30 pm--------- 64.0 62.1----
2024-03-03 02:24 pm--------- 64.0 62.1----
2024-03-03 02:18 pm E 8.0 8.0----29.87- 64.0 62.1----
2024-03-03 02:12 pm E 8.0 8.0----29.87- 63.9 62.1----
2024-03-03 02:06 pm E 7.0 8.0----29.87- 63.9 62.1----
2024-03-03 02:00 pm E 8.0 8.9----29.88-0.06 63.5-----
2024-03-03 01:54 pm E 8.0 8.9----29.88- 63.3-----
2024-03-03 01:48 pm E 8.9 8.9----29.88- 63.5 62.1----
2024-03-03 01:42 pm E 8.0 8.0----29.88- 63.3 62.1----
2024-03-03 01:36 pm E 8.0 8.0----29.88- 63.1 62.1----
2024-03-03 01:30 pm E 7.0 7.0----29.89-- 61.9----
2024-03-03 01:24 pm E 7.0 8.0----29.89-- 61.9----
2024-03-03 01:18 pm E 8.0 8.9----29.89-------
2024-03-03 01:12 pm E 8.9 8.9----29.89-------
2024-03-03 01:06 pm E 8.0 8.9----29.89-------
2024-03-03 01:00 pm E 6.0 7.0----29.90-0.05- 61.7----
2024-03-03 12:54 pm E 6.0 7.0----29.90-- 61.7----
2024-03-03 12:48 pm--------- 63.3-----
2024-03-03 12:42 pm--------- 63.3-----
2024-03-03 12:36 pm--------- 63.3-----
2024-03-03 12:30 pm E 8.0 8.9----29.91- 63.3 61.7----
2024-03-03 12:24 pm E 8.0 8.9----29.92- 63.1 61.7----
2024-03-03 12:18 pm E 8.9 9.9----29.92- 63.3 61.7----
2024-03-03 12:12 pm E 8.9 11.1----29.92- 63.3 61.7----
2024-03-03 12:06 pm E 9.9 11.1----29.92- 63.1 61.7----
2024-03-03 12:00 pm E 8.9 9.9----29.93-0.02 63.1 61.7----
2024-03-03 11:54 am E 8.9 9.9----29.93- 63.1 61.7----
2024-03-03 11:48 am E 8.0 8.9----29.93- 63.1 61.7----
2024-03-03 11:42 am E 8.0 8.9----29.93- 63.3 61.7----
2024-03-03 11:36 am E 7.0 8.0----29.94- 63.3 61.7----
2024-03-03 11:30 am E 8.0 8.9----29.94- 63.1 61.7----
2024-03-03 11:24 am E 8.0 8.0----29.94- 63.3 61.7----
2024-03-03 11:18 am E 7.0 8.0----29.94-- 61.7----
2024-03-03 11:12 am E 7.0 8.0----29.94-- 61.5----
2024-03-03 11:06 am E 7.0 7.0----29.94-- 61.5----
2024-03-03 11:00 am E 7.0 8.0----29.94-- 61.5----
2024-03-03 10:54 am E 7.0 8.0----29.94-- 61.5----
2024-03-03 10:48 am E 7.0 7.0----29.95- 63.1 61.5----
2024-03-03 10:42 am E 7.0 8.0----29.95- 63.3 61.5----
2024-03-03 10:36 am E 7.0 8.9----29.95- 63.3 61.5----
2024-03-03 10:30 am E 8.0 8.9----29.95- 63.3 61.5----
2024-03-03 10:24 am E 8.9 8.9----29.95- 63.1 61.5----
2024-03-03 10:18 am E 8.9 9.9----29.95- 63.3 61.3----
2024-03-03 10:12 am E 8.9 9.9----29.95- 63.3 61.3----
2024-03-03 10:06 am E 8.9 9.9----29.94- 63.5 61.3----
2024-03-03 10:00 am E 8.9 8.9----29.94+0.03 63.3 61.5----
2024-03-03 09:54 am E 8.0 8.9----29.95- 63.5 61.5----
2024-03-03 09:48 am E 8.0 8.0----29.94- 63.5 61.5----
2024-03-03 09:42 am E 7.0 8.0----29.95- 63.7 61.5----
2024-03-03 09:36 am E 8.0 8.9----29.94- 63.7 61.5----
2024-03-03 09:30 amESE 8.0 8.9----29.95- 63.9 61.7----
2024-03-03 09:24 amESE 8.0 8.9----29.95- 63.9 61.7----
2024-03-03 09:18 amESE 8.0 8.9----29.95- 64.0 61.7----
2024-03-03 09:12 amESE 8.0 8.9----29.95- 64.0 61.7----
2024-03-03 09:06 amESE 8.9 8.9----29.95- 64.2 61.5----
2024-03-03 09:00 amESE 8.0 8.9----29.95+0.04 63.9 61.5----
2024-03-03 08:54 amESE 8.9 9.9----29.94- 64.6 61.5----